Terminal Aerodrome Forecast
Issued by NWS State College, PA

Home | Current Version | Previous Version | Text Only | Print | Product List | Glossary On
Versions: 1 2 3 4 5 6 7 8 9 10 11 12 13 14 15 16 17 18 19 20 21 22 23 24 25 26 27 28 29 30 31 32 33 34 35 36 37 38 39 40 41 42 43 44 45 46 47 48 49 50
000
FTUS41 KCTP 302349
TAFMDT
TAF
KMDT 302349Z 3100/3124 30015G23KT P6SM SCT080
     FM310500 29007KT P6SM SCT080
     FM311200 24006KT P6SM VCSH OVC050
     FM311400 22006KT 4SM -RA OVC035
     FM311800 29008KT 4SM -RA OVC025=

USA.gov is the U.S. government's official web portal to all federal, state and local government web resources and services.